Weather History for Jackson, TN

Change the Weather History Date:

Saturday, June 7, 2014

  Actual Average Record
Temperature  
Mean Temperature 76 °F 74 °F  
Max Temperature 87 °F 86 °F 98 °F (2011)
Min Temperature 65 °F 63 °F 44 °F (2000)
Degree Days  
Heating Degree Days 0 0  
Month to date heating degree days 0 0  
Since 1 June heating degree days 0 0  
Since 1 July heating degree days 4147 3572  
Cooling Degree Days 11 10  
Month to date cooling degree days 88 62  
Year to date cooling degree days 338 277  
Since 1 June cooling degree days 88 62  
Growing Degree Days 25 (Base 50)    
Moisture  
Dew Point 68 °F    
Average Humidity 81    
Maximum Humidity 100    
Minimum Humidity 61    
Precipitation  
Precipitation 1.50 in 0.18 in 1.50 in (2014)
Month to date precipitation 6.22 1.26  
Year to date precipitation 28.23 24.80  
Snow  
Snow 0.00 in 0.00 in - ()
Month to date snowfall 0.0 0.0  
Since 1 June snowfall 0.0 0.0  
Since 1 July snowfall 1.3 4.6  
Snow Depth 0.00 in    
Sea Level Pressure  
Sea Level Pressure 29.91 in    
Wind  
Wind Speed 6 mph (SW)    
Max Wind Speed 38 mph    
Max Gust Speed 55 mph    
Visibility 6 miles    
Events Fog , Rain , Thunderstorm    
T = Trace of Precipitation, MM = Missing Value Source: NWS Daily Summary

Daily Weather History Graph

Daily Weather History Graph

Search for Another Location

Airport:

Trip Planner

Search our weather history database for the weather conditions in past years. The results will help you decide how hot, cold, wet, or windy it might be!

Date:

Astronomy

Jun. 07, 2014 Rise Set
Actual Time 5:39 AM CDT 8:09 PM CDT
Civil Twilight 5:10 AM CDT 8:39 PM CDT
Nautical Twilight 4:33 AM CDT 9:16 PM CDT
Astronomical Twilight 3:52 AM CDT 9:56 PM CDT
Moon 2:37 PM CDT (6/7) 1:50 AM CDT (6/7)
Length of Visible Light 15h 29m
Length of Day
14h 29m
Waxing Gibbous, 68% of the Moon is Illuminated
Jun 7
Waxing Gibbous
Jun 12
Full
Jun 19
Last Quarter
Jun 27
New
Jul 5
First Quarter

Hourly Weather History & Observations

Time (CDT) Temp. Heat Index Dew Point Humidity Pressure Visibility Wind Dir Wind Speed Gust Speed Precip Events Conditions
12:53 AM 66.9 °F - 66.0 °F 97% - 10.0 mi SW 3.5 mph - N/A   Partly Cloudy
1:35 AM 66.2 °F - 64.4 °F 94% - 5.0 mi Calm Calm - N/A   Mostly Cloudy
1:53 AM 68.0 °F - 66.0 °F 93% - 9.0 mi Calm Calm - N/A   Overcast
2:37 AM 66.2 °F - 66.2 °F 100% - 1.5 mi SSW 3.5 mph - N/A   Overcast
2:49 AM 66.2 °F - 66.2 °F 100% - 0.8 mi SSW 3.5 mph - N/A   Mist
2:53 AM 66.9 °F - 66.0 °F 97% - 0.8 mi SW 4.6 mph - N/A   Mist
3:41 AM 66.2 °F - 64.4 °F 94% - 0.2 mi Calm Calm - N/A Fog Fog
3:53 AM 66.0 °F - 64.9 °F 96% - 0.5 mi Calm Calm - N/A Fog Fog
4:21 AM 66.2 °F - 64.4 °F 94% - 0.2 mi Calm Calm - N/A Fog Fog
4:53 AM 66.0 °F - 64.9 °F 96% - 0.2 mi Calm Calm - N/A Fog Fog
5:53 AM 64.9 °F - 64.0 °F 97% - 0.2 mi Calm Calm - N/A Fog Fog
6:32 AM 64.4 °F - 64.4 °F 100% - 0.5 mi Calm Calm - N/A Fog Fog
7:00 AM 64.4 °F - 64.4 °F 100% 29.99 in 0.2 mi ESE 3.5 mph - N/A Fog Fog
7:18 AM 66.2 °F - 64.4 °F 94% 29.98 in 1.2 mi Calm Calm - N/A   Overcast
8:37 AM 69.8 °F - 68.0 °F 94% 30.01 in 10.0 mi Calm Calm - N/A   Overcast
8:53 AM 72.0 °F - 68.0 °F 87% 29.99 in 10.0 mi Calm Calm - N/A   Scattered Clouds
9:53 AM 77.0 °F - 70.0 °F 79% 29.95 in 10.0 mi South 5.8 mph - N/A   Scattered Clouds
10:06 AM 78.8 °F - 69.8 °F 74% 29.96 in 10.0 mi SSW 4.6 mph - N/A   Mostly Cloudy
10:28 AM 80.6 °F 84.6 °F 71.6 °F 74% 29.95 in 10.0 mi South 8.1 mph - N/A   Scattered Clouds
10:53 AM 80.1 °F 83.6 °F 71.1 °F 74% 29.93 in 10.0 mi South 8.1 mph - N/A   Scattered Clouds
11:33 AM 80.6 °F 84.6 °F 71.6 °F 74% 29.94 in 10.0 mi SSW 8.1 mph - N/A   Mostly Cloudy
11:53 AM 80.1 °F 83.6 °F 71.1 °F 74% 29.93 in 10.0 mi South 6.9 mph - N/A   Mostly Cloudy
12:53 PM 84.0 °F 89.6 °F 72.0 °F 67% 29.92 in 10.0 mi SSW 9.2 mph - N/A   Mostly Cloudy
1:14 PM 82.4 °F 87.2 °F 71.6 °F 70% 29.93 in 10.0 mi SW 8.1 mph - N/A   Mostly Cloudy
1:34 PM 84.2 °F 90.9 °F 73.4 °F 70% 29.93 in 10.0 mi WSW 6.9 mph - N/A   Mostly Cloudy
1:41 PM 84.2 °F 89.6 °F 71.6 °F 66% 29.92 in 10.0 mi SW 6.9 mph - N/A   Mostly Cloudy
1:53 PM 84.9 °F 90.7 °F 72.0 °F 65% 29.91 in 10.0 mi SW 6.9 mph - N/A   Mostly Cloudy
2:53 PM 86.0 °F 92.2 °F 72.0 °F 63% 29.87 in 10.0 mi SSW 6.9 mph 16.1 mph N/A   Scattered Clouds
3:15 PM 84.2 °F 89.6 °F 71.6 °F 66% 29.87 in 10.0 mi SSW 6.9 mph - N/A Thunderstorm Mostly Cloudy
3:34 PM 80.6 °F 85.4 °F 73.4 °F 79% 29.87 in 1.8 mi SW 5.8 mph - 0.04 in Rain , Thunderstorm Thunderstorms and Rain
3:44 PM 78.8 °F - 73.4 °F 83% 29.90 in 0.5 mi WNW 15.0 mph - 0.21 in Fog , Rain , Thunderstorm Heavy Thunderstorms and Rain
3:48 PM 77.0 °F - 73.4 °F 89% 29.89 in 1.0 mi NW 11.5 mph - 0.29 in Rain , Thunderstorm Heavy Thunderstorms and Rain
3:53 PM 75.0 °F - 71.1 °F 87% 29.88 in 1.0 mi WNW 13.8 mph - 0.41 in Rain , Thunderstorm Heavy Thunderstorms and Rain
3:57 PM 75.2 °F - 69.8 °F 83% 29.87 in 2.0 mi NW 12.7 mph - 0.05 in Rain , Thunderstorm Heavy Thunderstorms and Rain
4:05 PM 77.0 °F - 71.6 °F 83% 29.87 in 3.0 mi West 4.6 mph 17.3 mph 0.07 in Rain Light Rain
4:13 PM 78.8 °F - 71.6 °F 78% 29.87 in 10.0 mi Calm Calm - 0.07 in Thunderstorm Scattered Clouds
4:53 PM 79.0 °F - 72.0 °F 79% 29.86 in 10.0 mi SSE 8.1 mph - 0.07 in   Scattered Clouds
5:53 PM 78.1 °F - 73.0 °F 84% 29.83 in 10.0 mi Variable 3.5 mph - 0.01 in   Scattered Clouds
6:26 PM 75.2 °F - 73.4 °F 94% 29.82 in 10.0 mi SE 5.8 mph - 0.01 in Thunderstorm Unknown
6:34 PM 73.4 °F - 69.8 °F 88% 29.92 in 2.0 mi West 38.0 mph 55.2 mph 0.06 in Rain , Thunderstorm Light Thunderstorms and Rain
6:37 PM 69.8 °F - 66.2 °F 88% 29.93 in 0.8 mi West 32.2 mph 55.2 mph 0.16 in Rain , Thunderstorm Heavy Thunderstorms and Rain
6:48 PM 68.0 °F - 66.2 °F 94% 29.91 in 0.8 mi North 27.6 mph 46.0 mph 0.62 in Rain , Thunderstorm Heavy Thunderstorms and Rain
6:51 PM 68.0 °F - 64.4 °F 88% 29.90 in 1.2 mi North 20.7 mph 38.0 mph 0.72 in Rain , Thunderstorm Heavy Thunderstorms and Rain
6:53 PM 68.0 °F - 64.9 °F 90% 29.89 in 2.5 mi North 18.4 mph 38.0 mph 0.78 in Rain , Thunderstorm Thunderstorms and Rain
6:55 PM 68.0 °F - 64.4 °F 88% 29.89 in 4.0 mi NNE 19.6 mph 36.8 mph 0.05 in Rain , Thunderstorm Thunderstorms and Rain
7:13 PM 68.0 °F - 64.4 °F 88% 29.91 in 10.0 mi ENE 9.2 mph - 0.14 in Rain , Thunderstorm Light Rain
7:25 PM 68.0 °F - 64.4 °F 88% 29.94 in 10.0 mi SW 4.6 mph - 0.14 in Thunderstorm Mostly Cloudy
7:46 PM 68.0 °F - 64.4 °F 88% 29.93 in 9.0 mi SSE 4.6 mph - 0.17 in Rain Light Rain
7:53 PM 68.0 °F - 64.9 °F 90% 29.91 in 9.0 mi South 6.9 mph - 0.19 in Rain Light Rain
8:53 PM 68.0 °F - 64.9 °F 90% 29.88 in 10.0 mi SSE 8.1 mph - 0.03 in   Overcast
9:53 PM 66.9 °F - 64.9 °F 93% 29.88 in 10.0 mi South 5.8 mph - 0.01 in   Mostly Cloudy
10:53 PM 66.9 °F - 64.0 °F 90% 29.86 in 10.0 mi South 6.9 mph - N/A   Scattered Clouds
11:53 PM 66.9 °F - 64.0 °F 90% 29.88 in 10.0 mi South 4.6 mph - N/A   Mostly Cloudy